Погода в Арке

Погода в Арке : погода сейчас, прогноз погоды и архив. Всё, что Вы хотите узнать о погоде в Арке!

Хотите узнать прогноз погоды в Арке? Тогда Вам сюда: Погода в Арке

Поиск расширенной информации на нашем сайте:

Другие новости

Новости СМИ2

Главная страница сайта

Новости сайта

03.07.2017

Напоминаем, что на нашем специализированном сайте Метеоцентр.Азия вы можете получить высокодетализированные автоматические прогнозы погоды по пунктам России, СНГ и мира в авиационном формате (включающие направление и скорость ветра, видимость, явления погоды, количество и форму облачности, нижнюю и верхнюю границу облачности).

Рекомендуем: Раздолье электронная отчетность электронная отчетность.

Погода в Арке - сегодня

Время (UTC), дата Ветер
(°,м/с) 
Видим.   Явления Облачность Т
(°С)
Тd
(°С)
f(%) Тe
(°С)
Pmin
(гПа)
dP
(гПа)
Po
(мм)
O2
(г/м3)
Тmin Tmax R s Состояние
почвы
12 17.06.18 160 (Ю) 20000 м    10/10 300 м 
[St]
+7.9 +5.7 86 +9  1013.4  742  290           
15 17.06.18 150 (ЮВ) 20000 м    10/10 300 м 
[St]
+6 +4.1 88 +7  1014  0.4  742  292           
18 17.06.18 170 (Ю) 20000 м    10/10 300 м 
[St]
+5.3 +4.6 95 +6  1014.2  0.1  743  293           
00 18.06.18 190 (Ю) 20000 м    9/9 300 м 
[St]
+9.7 +5.6 76 +10  1014.1  743  288           
03 18.06.18 160 (Ю) 20000 м    4/1 1000 м верхняя 
[Cu hum|Ci fib]
+13.7 +6.6 62 +14  1012.5  -1.2  742  283           
06 18.06.18 180 (Ю) 20000 м    3/1 1000 м верхняя 
[Cu hum|Ci fib]
+17.1 +0.9 33 +17  1011  -1.2  741  281           
12 18.06.18 170 (Ю) 20000 м    3/1 1000 м верхняя 
[Sc|Ci fib]
+8.3 +4.8 79 +8  1013.3  1.4  742  289           
15 18.06.18 170 (Ю) 20000 м    10/10 300 м 
[St]
+4.3 +3.5 95 +4  1014.5  0.9  743  294           
18 18.06.18 230 (ЮЗ) 20000 м    10/10 300 м 
[St]
+3.9 +2.9 93 +5  1014.7  0.1  743  295           
00 19.06.18 100 (В) 20000 м    6/6 300 м 
[St]
+6.7 +3.2 78 +7  1014.7  743  292           
03 19.06.18 160 (Ю) 20000 м    3/0 верхняя 
[Ci fib]
+14.9 +1.2 39 +15  1012.5  -1.5  742  283           
06 19.06.18 170 (Ю) 20000 м    4/0 верхняя 
[Ci fib]
+16.9 +5.9 48 +17  1010.9  -1.3  741  280           
12 19.06.18 170 (Ю) 20000 м    8/1 1000 м верхняя 
[Sc|Ci fib]
+9.1 +6.4 83 +9  1013.3  1.2  742  288           
15 19.06.18 100 (В) 20000 м    9/9 300 м 
[St]
+7.8 +6.2 90 +9  1013.7  0.3  742  290           
18 19.06.18 тихо ()   20000 м    10/10 300 м 
[St]
+7.5 +6.3 92 +8  1013.4  -0.3  742  290           
00 20.06.18 160 (Ю) 20000 м    10/10 300 м 
[St]
+9.7 +7 83 +11  1012.9  -0.3  742  287           
03 20.06.18 150 (ЮВ) 20000 м    10/10 300 м 
[St]
+12 +7.7 75 +12  1011.9  -0.8  741  285           
06 20.06.18 190 (Ю) 20000 м    9/5 1000 м средняя, верхняя 
[Sc|Ac trans|Ci fib]
+15.4 +7.2 58 +16  1010.2  -1.4  740  281           
12 20.06.18 130 (ЮВ) 20000 м  в посл. час ливневой дождь  10/8 600 м кучево-дожд., средняя 
[Cb cap|Ac und]
+7.6 +6.6 93 +9  1011.7  0.6  741  289           
15 20.06.18 290 (З) 10 км  слаб. ливневой дождь  10/10 300 м кучево-дожд. 
[Cb cap]
+7.3 +6.6 95 +8  1010.8  -0.9  740  289           
18 20.06.18 210 (ЮЗ) 20000 м  в посл. час ливневой дождь  10/10 300 м кучево-дожд. 
[Cb cap]
+7.4 +6.9 97 +8  1009.7  -1  739  289           
21 20.06.18 180 (Ю) 4000 м  слаб. ливневой дождь  10/10 300 м кучево-дожд. 
[Cb cap]
+8 +7.5 97 +9  1009.8  0.1  739  288  +7.2  -0.8     
00 21.06.18 180 (Ю) 4000 м  слаб. ливневой дождь  10/10 300 м кучево-дожд. 
[Cb cap]
+10.2 +9.6 96 +12  1009.2  -0.4  739  285           
03 21.06.18 020 (С) 2000 м  ливневой дождь  10/10 300 м кучево-дожд. 
[Cb cap]
+12.2 +10.7 91 +15  1008.4  -0.6  739  283           
06 21.06.18 140 (ЮВ) 4000 м  слаб. ливневой дождь  10/10 300 м кучево-дожд. 
[Cb cap]
+10.4 +9.6 95 +13  1008.1  -0.4  738  285           
Время (UTC), дата Ветер
(°,м/с) 
Видим.   Явления Облачность Т
(°С)
Тd
(°С)
f(%) Тe
(°С)
Pmin
(гПа)
dP
(гПа)
Po
(мм)
O2
(г/м3)
Тmin Tmax R s Состояние
почвы

Для получения пояснительной информации подведите курсор к названию столбца.

ПОГОДА в Арке - архив

Всё, что Вы хотите узнать о погоде в Арке - удобно и подробно!

Выберите нужную дату (начиная с 1 января 2015* года) и нажмите кнопку "Найти".
Будут отображены архивные сводки погоды по пункту Арка, начиная с указанной даты.


Отображать данные в формате CSV (для использования в таблицах Excel)


Внимание! Наш архив погоды предназначен исключительно для личного некоммерческого использования в познавательных целях. Если Вам необходимы официальные справки о состоянии погоды (для производственных, юридических, коммерческих и т.п. целей), обращайтесь в органы Росгидромета.

*Примечание: данная дата относится к архиву по метеостанциям СССР (Россия, СНГ, Балтия).
Архив по метеостанциям Зарубежной Европы и Азии (кроме Китая) хранится 10 дней, по другим регионам земного шара (Китай, Африка, Америка, Австралия, Океания) - 1 день.

Арка - район местоположения метеостанции


Название, широта, долгота, высота метеостанции:
Арка 60.1°ш. 142.3°д. 198 м над ур. моря [Российская Федерация]

Дополнительная информация

В oтличие oт бoльшинства пoгoдных сайтoв мы публикуем пoдрoбную метеoинфoрмацию в детальнoм прoфессиoнальнoм фoрмате.

Характеристики температуры и влажнoсти вoздуха измеряются на высoте 2 м в тени вдали oт зданий и деревьев.
Скoрoсть ветра измеряется на высoте 10 м (на урoвне рoста челoвека скoрoсть ветра ниже в 1.5-2 раза). Если метеoстанция нахoдится в гoрoде или в лесу, тo скoрoсть ветра занижена на 2-4 м/с пo сравнению с oткрытым местoм. Скoрoсть ветра над акватoриями крупных рек и oзёр, а также на вершинах хoлмoв на 2-5 м/с выше, чем в oбычных услoвиях.
Атмoсфернoе давление в разных тoчках местнoсти мoжет значительнo oтличаться oт давления на метеoстанции, в зависимoсти oт услoвий рельефа (при пoдъёме на 10 м давление пoнижается примернo на 1 мм рт.ст.).